TimeCDT,TemperatureF,Dew PointF,Humidity,Sea Level PressureIn,VisibilityMPH,Wind Direction,Wind SpeedMPH,Gust SpeedMPH,PrecipitationIn,Events,Conditions,WindDirDegrees,DateUTC
12:40 AM,71.6,69.8,94,30.02,4.0,Calm,Calm,-,N/A,,Clear,0,2013-09-08 05:40:00
12:53 AM,71.1,69.1,93,30.01,2.5,Calm,Calm,-,N/A,,Clear,0,2013-09-08 05:53:00
1:00 AM,71.6,69.8,94,30.01,3.0,Calm,Calm,-,N/A,,Clear,0,2013-09-08 06:00:00
1:02 AM,71.6,69.8,94,30.01,1.8,Calm,Calm,-,N/A,,Clear,0,2013-09-08 06:02:00
1:12 AM,71.6,69.8,94,30.01,3.0,Calm,Calm,-,N/A,,Clear,0,2013-09-08 06:12:00
1:35 AM,71.6,69.8,94,30.01,2.5,Calm,Calm,-,N/A,,Clear,0,2013-09-08 06:35:00
1:53 AM,71.1,69.1,93,29.99,2.5,Calm,Calm,-,N/A,,Clear,0,2013-09-08 06:53:00
2:00 AM,71.6,69.8,94,29.99,4.0,Calm,Calm,-,N/A,,Clear,0,2013-09-08 07:00:00
2:17 AM,69.8,68.0,94,29.99,2.0,Calm,Calm,-,N/A,,Clear,0,2013-09-08 07:17:00
2:36 AM,69.8,68.0,94,29.98,3.0,Calm,Calm,-,N/A,,Clear,0,2013-09-08 07:36:00
2:53 AM,70.0,68.0,93,29.98,3.0,Calm,Calm,-,N/A,,Clear,0,2013-09-08 07:53:00
3:53 AM,70.0,68.0,93,29.99,4.0,Calm,Calm,-,N/A,,Mostly Cloudy,0,2013-09-08 08:53:00
4:53 AM,69.1,66.9,93,29.99,3.0,Calm,Calm,-,N/A,,Clear,0,2013-09-08 09:53:00
5:00 AM,69.8,66.2,88,29.99,2.5,Calm,Calm,-,N/A,,Clear,0,2013-09-08 10:00:00
5:07 AM,69.8,66.2,88,29.99,4.0,Calm,Calm,-,N/A,,Clear,0,2013-09-08 10:07:00
5:53 AM,68.0,66.0,93,29.99,3.0,Calm,Calm,-,N/A,,Clear,0,2013-09-08 10:53:00
6:37 AM,68.0,66.2,94,30.01,2.5,Calm,Calm,-,N/A,,Clear,0,2013-09-08 11:37:00
6:44 AM,68.0,66.2,94,30.01,3.0,Calm,Calm,-,N/A,,Clear,0,2013-09-08 11:44:00
6:53 AM,69.1,66.9,93,30.01,3.0,Calm,Calm,-,N/A,,Clear,0,2013-09-08 11:53:00
7:53 AM,73.0,70.0,90,30.01,4.0,Calm,Calm,-,N/A,,Clear,0,2013-09-08 12:53:00
8:53 AM,79.0,72.0,79,30.02,9.0,Calm,Calm,-,N/A,,Clear,0,2013-09-08 13:53:00
9:53 AM,84.9,72.0,65,30.02,10.0,Calm,Calm,-,N/A,,Clear,0,2013-09-08 14:53:00
10:53 AM,87.1,71.1,59,30.01,10.0,Calm,Calm,-,N/A,,Clear,0,2013-09-08 15:53:00
11:53 AM,89.1,66.9,48,30.01,10.0,Calm,Calm,-,N/A,,Clear,0,2013-09-08 16:53:00
12:53 PM,91.0,66.0,44,30.00,10.0,Calm,Calm,-,N/A,,Clear,0,2013-09-08 17:53:00
1:53 PM,91.9,64.9,41,29.97,10.0,Calm,Calm,-,N/A,,Clear,0,2013-09-08 18:53:00
2:53 PM,93.9,66.9,41,29.95,10.0,Variable,4.6,-,N/A,,Clear,0,2013-09-08 19:53:00
3:53 PM,93.0,66.0,41,29.95,10.0,ENE,8.1,-,N/A,,Clear,60,2013-09-08 20:53:00
4:53 PM,93.0,64.9,39,29.94,10.0,Calm,Calm,-,N/A,,Clear,0,2013-09-08 21:53:00
5:53 PM,90.0,68.0,48,29.94,10.0,NE,3.5,-,N/A,,Clear,50,2013-09-08 22:53:00
6:53 PM,82.0,73.9,76,29.95,8.0,Calm,Calm,-,N/A,,Clear,0,2013-09-08 23:53:00
7:53 PM,80.1,72.0,76,29.97,10.0,Calm,Calm,-,N/A,,Clear,0,2013-09-09 00:53:00
8:53 PM,75.9,72.0,87,29.99,9.0,Calm,Calm,-,N/A,,Clear,0,2013-09-09 01:53:00
9:53 PM,75.0,71.1,87,30.00,7.0,Calm,Calm,-,N/A,,Clear,0,2013-09-09 02:53:00
10:53 PM,73.0,70.0,90,30.00,6.0,Calm,Calm,-,N/A,,Clear,0,2013-09-09 03:53:00
11:53 PM,72.0,69.1,91,29.99,4.0,Calm,Calm,-,N/A,,Clear,0,2013-09-09 04:53:00